Year,Month,Day,Hour,Minute,Value (Times are PST for temperature in C)
2014,08,12,00,00,18.80
2014,08,12,00,01,18.80
2014,08,12,00,02,18.70
2014,08,12,00,03,18.60
2014,08,12,00,04,18.60
2014,08,12,00,05,18.50
2014,08,12,00,06,18.40
2014,08,12,00,07,18.40
2014,08,12,00,08,18.30
2014,08,12,00,09,18.30
2014,08,12,00,10,18.30
2014,08,12,00,11,18.20
2014,08,12,00,12,18.20
2014,08,12,00,13,18.10
2014,08,12,00,14,18.10
2014,08,12,00,15,18.00
2014,08,12,00,16,17.90
2014,08,12,00,17,17.90
2014,08,12,00,18,17.90
2014,08,12,00,19,17.90
2014,08,12,00,20,17.80
2014,08,12,00,21,17.90
2014,08,12,00,22,17.90
2014,08,12,00,23,17.90
2014,08,12,00,24,17.90
2014,08,12,00,25,17.90
2014,08,12,00,26,17.90
2014,08,12,00,27,18.00
2014,08,12,00,28,18.00
2014,08,12,00,29,18.10
2014,08,12,00,30,18.10
2014,08,12,00,31,18.10
2014,08,12,00,32,18.10
2014,08,12,00,33,18.20
2014,08,12,00,34,18.20
2014,08,12,00,35,18.20
2014,08,12,00,36,18.20
2014,08,12,00,37,18.20
2014,08,12,00,38,18.30
2014,08,12,00,39,18.30
2014,08,12,00,40,18.30
2014,08,12,00,41,18.30
2014,08,12,00,42,18.30
2014,08,12,00,43,18.40
2014,08,12,00,44,18.40
2014,08,12,00,45,18.40
2014,08,12,00,46,18.40
2014,08,12,00,47,18.40
2014,08,12,00,48,18.40
2014,08,12,00,49,18.40
2014,08,12,00,50,18.40
2014,08,12,00,51,18.40
2014,08,12,00,52,18.50
2014,08,12,00,53,18.50
2014,08,12,00,54,18.50
2014,08,12,00,55,18.50
2014,08,12,00,56,18.60
2014,08,12,00,57,18.60
2014,08,12,00,58,18.60
2014,08,12,00,59,18.60
2014,08,12,01,00,18.50
2014,08,12,01,01,18.50
2014,08,12,01,02,18.50
2014,08,12,01,03,18.50
2014,08,12,01,04,18.50
2014,08,12,01,05,18.40
2014,08,12,01,06,18.40
2014,08,12,01,07,18.40
2014,08,12,01,08,18.40
2014,08,12,01,09,18.40
2014,08,12,01,10,18.40
2014,08,12,01,11,18.40
2014,08,12,01,12,18.40
2014,08,12,01,13,18.40
2014,08,12,01,14,18.40
2014,08,12,01,15,18.40
2014,08,12,01,16,18.40
2014,08,12,01,17,18.40
2014,08,12,01,18,18.50
2014,08,12,01,19,18.50
2014,08,12,01,20,18.50
2014,08,12,01,21,18.50
2014,08,12,01,22,18.50
2014,08,12,01,23,18.60
2014,08,12,01,24,18.60
2014,08,12,01,25,18.60
2014,08,12,01,26,18.60
2014,08,12,01,27,18.60
2014,08,12,01,28,18.60
2014,08,12,01,29,18.60
2014,08,12,01,30,18.70
2014,08,12,01,31,18.70
2014,08,12,01,32,18.70
2014,08,12,01,33,18.70
2014,08,12,01,34,18.80
2014,08,12,01,35,18.80
2014,08,12,01,36,18.90
2014,08,12,01,37,18.90
2014,08,12,01,38,19.00
2014,08,12,01,39,19.00
2014,08,12,01,40,19.10
2014,08,12,01,41,19.10
2014,08,12,01,42,19.20
2014,08,12,01,43,19.20
2014,08,12,01,44,19.30
2014,08,12,01,45,19.40
2014,08,12,01,46,19.60
2014,08,12,01,47,19.70
2014,08,12,01,48,19.80
2014,08,12,01,49,19.80
2014,08,12,01,50,19.90
2014,08,12,01,51,19.90
2014,08,12,01,52,20.00
2014,08,12,01,53,20.10
2014,08,12,01,54,20.10
2014,08,12,01,55,20.20
2014,08,12,01,56,20.20
2014,08,12,01,57,20.30
2014,08,12,01,58,20.30
2014,08,12,01,59,20.40
2014,08,12,02,00,20.50
2014,08,12,02,01,20.60
2014,08,12,02,02,20.60
2014,08,12,02,03,20.70
2014,08,12,02,04,20.80
2014,08,12,02,05,20.80
2014,08,12,02,06,20.90
2014,08,12,02,07,20.90
2014,08,12,02,08,21.00
2014,08,12,02,09,21.00
2014,08,12,02,10,20.90
2014,08,12,02,11,20.80
2014,08,12,02,12,20.70
2014,08,12,02,13,20.60
2014,08,12,02,14,20.40
2014,08,12,02,15,20.40
2014,08,12,02,16,20.30
2014,08,12,02,17,20.30
2014,08,12,02,18,20.20
2014,08,12,02,19,20.20
2014,08,12,02,20,20.10
2014,08,12,02,21,20.00
2014,08,12,02,22,20.00
2014,08,12,02,23,19.90
2014,08,12,02,24,19.80
2014,08,12,02,25,19.80
2014,08,12,02,26,19.70
2014,08,12,02,27,19.70
2014,08,12,02,28,19.70
2014,08,12,02,29,19.60
2014,08,12,02,30,19.60
2014,08,12,02,31,19.60
2014,08,12,02,32,19.60
2014,08,12,02,33,19.50
2014,08,12,02,34,19.50
2014,08,12,02,35,19.40
2014,08,12,02,36,19.40
2014,08,12,02,37,19.40
2014,08,12,02,38,19.40
2014,08,12,02,39,19.30
2014,08,12,02,40,19.30
2014,08,12,02,41,19.30
2014,08,12,02,42,19.30
2014,08,12,02,43,19.30
2014,08,12,02,44,19.30
2014,08,12,02,45,19.20
2014,08,12,02,46,19.20
2014,08,12,02,47,19.20
2014,08,12,02,48,19.20
2014,08,12,02,49,19.20
2014,08,12,02,50,19.20
2014,08,12,02,51,19.20
2014,08,12,02,52,19.20
2014,08,12,02,53,19.20
2014,08,12,02,54,19.20
2014,08,12,02,55,19.20
2014,08,12,02,56,19.20
2014,08,12,02,57,19.20
2014,08,12,02,58,19.20
2014,08,12,02,59,19.20
2014,08,12,03,00,19.20
2014,08,12,03,01,19.20
2014,08,12,03,02,19.20
2014,08,12,03,03,19.20
2014,08,12,03,04,19.20
2014,08,12,03,05,19.20
2014,08,12,03,06,19.20
2014,08,12,03,07,19.20
2014,08,12,03,08,19.20
2014,08,12,03,09,19.20
2014,08,12,03,10,19.20
2014,08,12,03,11,19.20
2014,08,12,03,12,19.20
2014,08,12,03,13,19.20
2014,08,12,03,14,19.20
2014,08,12,03,15,19.20
2014,08,12,03,16,19.20
2014,08,12,03,17,19.20
2014,08,12,03,18,19.10
2014,08,12,03,19,19.10
2014,08,12,03,20,19.10
2014,08,12,03,21,19.10
2014,08,12,03,22,19.00
2014,08,12,03,23,19.00
2014,08,12,03,24,19.00
2014,08,12,03,25,19.00
2014,08,12,03,26,18.90
2014,08,12,03,27,18.90
2014,08,12,03,28,18.90
2014,08,12,03,29,18.90
2014,08,12,03,30,18.90
2014,08,12,03,31,18.90
2014,08,12,03,32,18.90
2014,08,12,03,33,18.90
2014,08,12,03,34,18.90
2014,08,12,03,35,18.90
2014,08,12,03,36,18.80
2014,08,12,03,37,18.80
2014,08,12,03,38,18.80
2014,08,12,03,39,18.80
2014,08,12,03,40,18.80
2014,08,12,03,41,18.80
2014,08,12,03,42,18.80
2014,08,12,03,43,18.90
2014,08,12,03,44,18.90
2014,08,12,03,45,18.90
2014,08,12,03,46,18.90
2014,08,12,03,47,18.90
2014,08,12,03,48,18.90
2014,08,12,03,49,18.90
2014,08,12,03,50,18.90
2014,08,12,03,51,18.80
2014,08,12,03,52,18.90
2014,08,12,03,53,18.90
2014,08,12,03,54,18.90
2014,08,12,03,55,18.90
2014,08,12,03,56,19.00
2014,08,12,03,57,19.00
2014,08,12,03,58,19.10
2014,08,12,03,59,19.10
2014,08,12,04,00,19.00
2014,08,12,04,01,19.00
2014,08,12,04,02,19.00
2014,08,12,04,03,18.90
2014,08,12,04,04,18.90
2014,08,12,04,05,18.80
2014,08,12,04,06,18.80
2014,08,12,04,07,18.80
2014,08,12,04,08,18.80
2014,08,12,04,09,18.70
2014,08,12,04,10,18.70
2014,08,12,04,11,18.70
2014,08,12,04,12,18.70
2014,08,12,04,13,18.60
2014,08,12,04,14,18.60
2014,08,12,04,15,18.60
2014,08,12,04,16,18.60
2014,08,12,04,17,18.60
2014,08,12,04,18,18.60
2014,08,12,04,19,18.60
2014,08,12,04,20,18.60
2014,08,12,04,21,18.50
2014,08,12,04,22,18.50
2014,08,12,04,23,18.50
2014,08,12,04,24,18.50
2014,08,12,04,25,18.40
2014,08,12,04,26,18.40
2014,08,12,04,27,18.40
2014,08,12,04,28,18.30
2014,08,12,04,29,18.30
2014,08,12,04,30,18.20
2014,08,12,04,31,18.20
2014,08,12,04,32,18.20
2014,08,12,04,33,18.20
2014,08,12,04,34,18.20
2014,08,12,04,35,18.10
2014,08,12,04,36,18.10
2014,08,12,04,37,18.10
2014,08,12,04,38,18.10
2014,08,12,04,39,18.10
2014,08,12,04,40,18.00
2014,08,12,04,41,18.00
2014,08,12,04,42,18.00
2014,08,12,04,43,18.00
2014,08,12,04,44,18.00
2014,08,12,04,45,18.10
2014,08,12,04,46,18.10
2014,08,12,04,47,18.10
2014,08,12,04,48,18.10
2014,08,12,04,49,18.10
2014,08,12,04,50,18.10
2014,08,12,04,51,18.20
2014,08,12,04,52,18.20
2014,08,12,04,53,18.20
2014,08,12,04,54,18.30
2014,08,12,04,55,18.30
2014,08,12,04,56,18.30
2014,08,12,04,57,18.30
2014,08,12,04,58,18.30
2014,08,12,04,59,18.30
2014,08,12,05,00,18.40
2014,08,12,05,01,18.30
2014,08,12,05,02,18.30
2014,08,12,05,03,18.30
2014,08,12,05,04,18.40
2014,08,12,05,05,18.40
2014,08,12,05,06,18.40
2014,08,12,05,07,18.40
2014,08,12,05,08,18.40
2014,08,12,05,09,18.40
2014,08,12,05,10,18.40
2014,08,12,05,11,18.50
2014,08,12,05,12,18.50
2014,08,12,05,13,18.60
2014,08,12,05,14,18.60
2014,08,12,05,15,18.60
2014,08,12,05,16,18.60
2014,08,12,05,17,18.60
2014,08,12,05,18,18.60
2014,08,12,05,19,18.60
2014,08,12,05,20,18.60
2014,08,12,05,21,18.60
2014,08,12,05,22,18.70
2014,08,12,05,23,18.70
2014,08,12,05,24,18.70
2014,08,12,05,25,18.70
2014,08,12,05,26,18.70
2014,08,12,05,27,18.70
2014,08,12,05,28,18.70
2014,08,12,05,29,18.70
2014,08,12,05,30,18.80
2014,08,12,05,31,18.80
2014,08,12,05,32,18.80
2014,08,12,05,33,18.80
2014,08,12,05,34,18.80
2014,08,12,05,35,18.80
2014,08,12,05,36,18.80
2014,08,12,05,37,18.80
2014,08,12,05,38,18.80
2014,08,12,05,39,18.80
2014,08,12,05,40,18.80
2014,08,12,05,41,18.80
2014,08,12,05,42,18.80
2014,08,12,05,43,18.80
2014,08,12,05,44,18.80
2014,08,12,05,45,18.80
2014,08,12,05,46,18.80
2014,08,12,05,47,18.80
2014,08,12,05,48,18.80
2014,08,12,05,49,18.80
2014,08,12,05,50,18.80
2014,08,12,05,51,18.80
2014,08,12,05,52,18.80
2014,08,12,05,53,18.80
2014,08,12,05,54,18.80
2014,08,12,05,55,18.80
2014,08,12,05,56,18.70
2014,08,12,05,57,18.70
2014,08,12,05,58,18.70
2014,08,12,05,59,18.70
2014,08,12,06,00,18.70
2014,08,12,06,01,18.60
2014,08,12,06,02,18.60
2014,08,12,06,03,18.60
2014,08,12,06,04,18.60
2014,08,12,06,05,18.60
2014,08,12,06,06,18.60
2014,08,12,06,07,18.60
2014,08,12,06,08,18.60
2014,08,12,06,09,18.60
2014,08,12,06,10,18.70
2014,08,12,06,11,18.70
2014,08,12,06,12,18.70
2014,08,12,06,13,18.80
2014,08,12,06,14,18.80
2014,08,12,06,15,18.80
2014,08,12,06,16,18.90
2014,08,12,06,17,18.90
2014,08,12,06,18,18.90
2014,08,12,06,19,18.90
2014,08,12,06,20,18.90
2014,08,12,06,21,18.90
2014,08,12,06,22,19.00
2014,08,12,06,23,19.00
2014,08,12,06,24,19.00
2014,08,12,06,25,19.00
2014,08,12,06,26,19.10
2014,08,12,06,27,19.10
2014,08,12,06,28,19.10
2014,08,12,06,29,19.10
2014,08,12,06,30,19.10
2014,08,12,06,31,19.10
2014,08,12,06,32,19.10
2014,08,12,06,33,19.10
2014,08,12,06,34,19.10
2014,08,12,06,35,19.10
2014,08,12,06,36,19.10
2014,08,12,06,37,19.10
2014,08,12,06,38,19.10
2014,08,12,06,39,19.00
2014,08,12,06,40,19.00
2014,08,12,06,41,18.90
2014,08,12,06,42,18.90
2014,08,12,06,43,18.90
2014,08,12,06,44,18.80
2014,08,12,06,45,18.80
2014,08,12,06,46,18.70
2014,08,12,06,47,18.70
2014,08,12,06,48,18.70
2014,08,12,06,49,18.70
2014,08,12,06,50,18.70
2014,08,12,06,51,18.70
2014,08,12,06,52,18.70
2014,08,12,06,53,18.60
2014,08,12,06,54,18.60
2014,08,12,06,55,18.60
2014,08,12,06,56,18.60
2014,08,12,06,57,18.60
2014,08,12,06,58,18.60
2014,08,12,06,59,18.60
2014,08,12,07,00,18.60
2014,08,12,07,01,18.60
2014,08,12,07,02,18.60
2014,08,12,07,03,18.60
2014,08,12,07,04,18.60
2014,08,12,07,05,18.60
2014,08,12,07,06,18.60
2014,08,12,07,07,18.60
2014,08,12,07,08,18.60
2014,08,12,07,09,18.50
2014,08,12,07,10,18.50
2014,08,12,07,11,18.40
2014,08,12,07,12,18.30
2014,08,12,07,13,18.20
2014,08,12,07,14,18.10
2014,08,12,07,15,18.00
2014,08,12,07,16,17.90
2014,08,12,07,17,17.80
2014,08,12,07,18,17.80
2014,08,12,07,19,17.70
2014,08,12,07,20,17.60
2014,08,12,07,21,17.50
2014,08,12,07,22,17.40
2014,08,12,07,23,17.40
2014,08,12,07,24,17.30
2014,08,12,07,25,17.20
2014,08,12,07,26,17.20
2014,08,12,07,27,17.20
2014,08,12,07,28,17.10
2014,08,12,07,29,17.10
2014,08,12,07,30,17.10
2014,08,12,07,31,17.10
2014,08,12,07,32,17.10
2014,08,12,07,33,17.10
2014,08,12,07,34,17.10
2014,08,12,07,35,17.00
2014,08,12,07,36,17.00
2014,08,12,07,37,17.00
2014,08,12,07,38,16.90
2014,08,12,07,39,16.90
2014,08,12,07,40,16.90
2014,08,12,07,41,16.80
2014,08,12,07,42,16.80
2014,08,12,07,43,16.80
2014,08,12,07,44,16.80
2014,08,12,07,45,16.80
2014,08,12,07,46,16.80
2014,08,12,07,47,16.80
2014,08,12,07,48,16.80
2014,08,12,07,49,16.80
2014,08,12,07,50,16.90
2014,08,12,07,51,16.90
2014,08,12,07,52,16.90
2014,08,12,07,53,16.90
2014,08,12,07,54,16.90
2014,08,12,07,55,16.90
2014,08,12,07,56,16.90
2014,08,12,07,57,17.00
2014,08,12,07,58,17.00
2014,08,12,07,59,17.00
2014,08,12,08,00,17.00
2014,08,12,08,01,17.00
2014,08,12,08,02,17.00
2014,08,12,08,03,17.00
2014,08,12,08,04,17.00
2014,08,12,08,05,17.10
2014,08,12,08,06,17.10
2014,08,12,08,07,17.10
2014,08,12,08,08,17.10
2014,08,12,08,09,17.10
2014,08,12,08,10,17.10
2014,08,12,08,11,17.10
2014,08,12,08,12,17.10
2014,08,12,08,13,17.10
2014,08,12,08,14,17.10
2014,08,12,08,15,17.10
2014,08,12,08,16,17.10
2014,08,12,08,17,17.10
2014,08,12,08,18,17.10
2014,08,12,08,19,17.10
2014,08,12,08,20,17.10
2014,08,12,08,21,17.10
2014,08,12,08,22,17.00
2014,08,12,08,23,17.00
2014,08,12,08,24,17.00
2014,08,12,08,25,17.00
2014,08,12,08,26,16.90
2014,08,12,08,27,17.00
2014,08,12,08,28,16.90
2014,08,12,08,29,16.90
2014,08,12,08,30,17.00
2014,08,12,08,31,17.00
2014,08,12,08,32,17.00
2014,08,12,08,33,17.00
2014,08,12,08,34,17.00
2014,08,12,08,35,17.00
2014,08,12,08,36,17.00
2014,08,12,08,37,17.00
2014,08,12,08,38,17.10
2014,08,12,08,39,17.10
2014,08,12,08,40,17.10
2014,08,12,08,41,17.10
2014,08,12,08,42,17.20
2014,08,12,08,43,17.20
2014,08,12,08,44,17.20
2014,08,12,08,45,17.20
2014,08,12,08,46,17.30
2014,08,12,08,47,17.30
2014,08,12,08,48,17.40
2014,08,12,08,49,17.40
2014,08,12,08,50,17.50
2014,08,12,08,51,17.60
2014,08,12,08,52,17.60
2014,08,12,08,53,17.70
2014,08,12,08,54,17.70
2014,08,12,08,55,17.80
2014,08,12,08,56,17.80
2014,08,12,08,57,17.80
2014,08,12,08,58,17.90
2014,08,12,08,59,17.90
2014,08,12,09,00,17.90
2014,08,12,09,01,17.90
2014,08,12,09,02,18.00
2014,08,12,09,03,18.00
2014,08,12,09,04,18.00
2014,08,12,09,05,18.10
2014,08,12,09,06,18.10
2014,08,12,09,07,18.10
2014,08,12,09,08,18.10
2014,08,12,09,09,18.20
2014,08,12,09,10,18.20
2014,08,12,09,11,18.20
2014,08,12,09,12,18.30
2014,08,12,09,13,18.30
2014,08,12,09,14,18.40
2014,08,12,09,15,18.40
2014,08,12,09,16,18.40
2014,08,12,09,17,18.50
2014,08,12,09,18,18.50
2014,08,12,09,19,18.60
2014,08,12,09,20,18.70
2014,08,12,09,21,18.80
2014,08,12,09,22,18.80
2014,08,12,09,23,18.90
2014,08,12,09,24,18.90
2014,08,12,09,25,19.00
2014,08,12,09,26,19.00
2014,08,12,09,27,19.00
2014,08,12,09,28,19.00
2014,08,12,09,29,19.10
2014,08,12,09,30,19.10
2014,08,12,09,31,19.10
2014,08,12,09,32,19.10
2014,08,12,09,33,19.10
2014,08,12,09,34,19.10
2014,08,12,09,35,19.10
2014,08,12,09,36,19.10
2014,08,12,09,37,19.10
2014,08,12,09,38,19.10
2014,08,12,09,39,19.10
2014,08,12,09,40,19.20
2014,08,12,09,41,19.20
2014,08,12,09,42,19.20
2014,08,12,09,43,19.20
2014,08,12,09,44,19.20
2014,08,12,09,45,19.20
2014,08,12,09,46,19.30
2014,08,12,09,47,19.30
2014,08,12,09,48,19.30
2014,08,12,09,49,19.30
2014,08,12,09,50,19.30
2014,08,12,09,51,19.30
2014,08,12,09,52,19.30
2014,08,12,09,53,19.30
2014,08,12,09,54,19.40
2014,08,12,09,55,19.40
2014,08,12,09,56,19.40
2014,08,12,09,57,19.50
2014,08,12,09,58,19.50
2014,08,12,09,59,19.60
2014,08,12,10,00,19.60
2014,08,12,10,01,19.60
2014,08,12,10,02,19.70
2014,08,12,10,03,19.70
2014,08,12,10,04,19.70
2014,08,12,10,05,19.80
2014,08,12,10,06,19.80
2014,08,12,10,07,19.80
2014,08,12,10,08,19.80
2014,08,12,10,09,19.80
2014,08,12,10,10,19.90
2014,08,12,10,11,19.90
2014,08,12,10,12,19.90
2014,08,12,10,13,19.80
2014,08,12,10,14,19.80
2014,08,12,10,15,19.80
2014,08,12,10,16,19.80
2014,08,12,10,17,19.80
2014,08,12,10,18,19.90
2014,08,12,10,19,19.90
2014,08,12,10,20,19.90
2014,08,12,10,21,19.90
2014,08,12,10,22,19.90
2014,08,12,10,23,19.90
2014,08,12,10,24,20.00
2014,08,12,10,25,20.00
2014,08,12,10,26,20.10
2014,08,12,10,27,20.10
2014,08,12,10,28,20.10
2014,08,12,10,29,20.20
2014,08,12,10,30,20.20
2014,08,12,10,31,20.30
2014,08,12,10,32,20.30
2014,08,12,10,33,20.40
2014,08,12,10,34,20.40
2014,08,12,10,35,20.50
2014,08,12,10,36,20.60
2014,08,12,10,37,20.60
2014,08,12,10,38,20.60
2014,08,12,10,39,20.70
2014,08,12,10,40,20.70
2014,08,12,10,41,20.70
2014,08,12,10,42,20.70
2014,08,12,10,43,20.70
2014,08,12,10,44,20.70
2014,08,12,10,45,20.70
2014,08,12,10,46,20.70
2014,08,12,10,47,20.70
2014,08,12,10,48,20.60
2014,08,12,10,49,20.60
2014,08,12,10,50,20.60
2014,08,12,10,51,20.60
2014,08,12,10,52,20.60
2014,08,12,10,53,20.50
2014,08,12,10,54,20.50
2014,08,12,10,55,20.50
2014,08,12,10,56,20.50
2014,08,12,10,57,20.50
2014,08,12,10,58,20.40
2014,08,12,10,59,20.40
2014,08,12,11,00,20.40
2014,08,12,11,01,20.40
2014,08,12,11,02,20.40
2014,08,12,11,03,20.40
2014,08,12,11,04,20.40
2014,08,12,11,05,20.50
2014,08,12,11,06,20.50
2014,08,12,11,07,20.50
2014,08,12,11,08,20.50
2014,08,12,11,09,20.50
2014,08,12,11,10,20.60
2014,08,12,11,11,20.60
2014,08,12,11,12,20.60
2014,08,12,11,13,20.60
2014,08,12,11,14,20.60
2014,08,12,11,15,20.60
2014,08,12,11,16,20.70
2014,08,12,11,17,20.70
2014,08,12,11,18,20.70
2014,08,12,11,19,20.70
2014,08,12,11,20,20.70
2014,08,12,11,21,20.70
2014,08,12,11,22,20.80
2014,08,12,11,23,20.80
2014,08,12,11,24,20.80
2014,08,12,11,25,20.80
2014,08,12,11,26,20.80
2014,08,12,11,27,20.80
2014,08,12,11,28,20.90
2014,08,12,11,29,20.90
2014,08,12,11,30,20.90
2014,08,12,11,31,20.90
2014,08,12,11,32,20.90
2014,08,12,11,33,20.90
2014,08,12,11,34,20.90
2014,08,12,11,35,20.90
2014,08,12,11,36,20.90
2014,08,12,11,37,20.90
2014,08,12,11,38,20.90
2014,08,12,11,39,20.90
2014,08,12,11,40,20.90
2014,08,12,11,41,20.80
2014,08,12,11,42,20.80
2014,08,12,11,43,20.80
2014,08,12,11,44,20.80
2014,08,12,11,45,20.80
2014,08,12,11,46,20.80
2014,08,12,11,47,20.70
2014,08,12,11,48,20.70
2014,08,12,11,49,20.70
2014,08,12,11,50,20.70
2014,08,12,11,51,20.70
2014,08,12,11,52,20.70
2014,08,12,11,53,20.70
2014,08,12,11,54,20.60
2014,08,12,11,55,20.60
2014,08,12,11,56,20.60
2014,08,12,11,57,20.60
2014,08,12,11,58,20.60
2014,08,12,11,59,20.70
2014,08,12,12,00,20.70
2014,08,12,12,01,20.70
2014,08,12,12,02,20.70
2014,08,12,12,03,20.70
2014,08,12,12,04,20.70
2014,08,12,12,05,20.70
2014,08,12,12,06,20.80
2014,08,12,12,07,20.80
2014,08,12,12,08,20.80
2014,08,12,12,09,20.90
2014,08,12,12,10,20.90
2014,08,12,12,11,21.00
2014,08,12,12,12,21.10
2014,08,12,12,13,21.10
2014,08,12,12,14,21.20
2014,08,12,12,15,21.20
2014,08,12,12,16,21.30
2014,08,12,12,17,21.30
2014,08,12,12,18,21.40
2014,08,12,12,19,21.40
2014,08,12,12,20,21.50
2014,08,12,12,21,21.60
2014,08,12,12,22,21.60
2014,08,12,12,23,21.60
2014,08,12,12,24,21.70
2014,08,12,12,25,21.70
2014,08,12,12,26,21.80
2014,08,12,12,27,21.80
2014,08,12,12,28,21.80
2014,08,12,12,29,21.90
2014,08,12,12,30,21.90
2014,08,12,12,31,21.90
2014,08,12,12,32,22.00
2014,08,12,12,33,22.10
2014,08,12,12,34,22.10
2014,08,12,12,35,22.10
2014,08,12,12,36,22.20
2014,08,12,12,37,22.20
2014,08,12,12,38,22.30
2014,08,12,12,39,22.30
2014,08,12,12,40,22.40
2014,08,12,12,41,22.40
2014,08,12,12,42,22.40
2014,08,12,12,43,22.50
2014,08,12,12,44,22.50
2014,08,12,12,45,22.50
2014,08,12,12,46,22.60
2014,08,12,12,47,22.60
2014,08,12,12,48,22.70
2014,08,12,12,49,22.70
2014,08,12,12,50,22.80
2014,08,12,12,51,22.80
2014,08,12,12,52,22.90
2014,08,12,12,53,22.90
2014,08,12,12,54,23.00
2014,08,12,12,55,23.00
2014,08,12,12,56,23.10
2014,08,12,12,57,23.10
2014,08,12,12,58,23.10
2014,08,12,12,59,23.20
2014,08,12,13,00,23.20
2014,08,12,13,01,23.30
2014,08,12,13,02,23.30
2014,08,12,13,03,23.40
2014,08,12,13,04,23.40
2014,08,12,13,05,23.40
2014,08,12,13,06,23.50
2014,08,12,13,07,23.50
2014,08,12,13,08,23.50
2014,08,12,13,09,23.60
2014,08,12,13,10,23.60
2014,08,12,13,11,23.70
2014,08,12,13,12,23.70
2014,08,12,13,13,23.70
2014,08,12,13,14,23.70
2014,08,12,13,15,23.80
2014,08,12,13,16,23.80
2014,08,12,13,17,23.90
2014,08,12,13,18,23.90
2014,08,12,13,19,24.00
2014,08,12,13,20,24.00
2014,08,12,13,21,24.10
2014,08,12,13,22,24.20
2014,08,12,13,23,24.20
2014,08,12,13,24,24.30
2014,08,12,13,25,24.30
2014,08,12,13,26,24.40
2014,08,12,13,27,24.40
2014,08,12,13,28,24.50
2014,08,12,13,29,24.50
2014,08,12,13,30,24.60
2014,08,12,13,31,24.60
2014,08,12,13,32,24.70
2014,08,12,13,33,24.70
2014,08,12,13,34,24.70
2014,08,12,13,35,24.80
2014,08,12,13,36,24.80
2014,08,12,13,37,24.80
2014,08,12,13,38,24.80
2014,08,12,13,39,24.80
2014,08,12,13,40,24.80
2014,08,12,13,41,24.80
2014,08,12,13,42,24.80
2014,08,12,13,43,24.80
2014,08,12,13,44,24.80
2014,08,12,13,45,24.80
2014,08,12,13,46,24.80
2014,08,12,13,47,24.80
2014,08,12,13,48,24.90
2014,08,12,13,49,24.90
2014,08,12,13,50,24.90
2014,08,12,13,51,24.90
2014,08,12,13,52,24.90
2014,08,12,13,53,24.90
2014,08,12,13,54,24.90
2014,08,12,13,55,24.90
2014,08,12,13,56,25.00
2014,08,12,13,57,25.00
2014,08,12,13,58,25.00
2014,08,12,13,59,25.00
2014,08,12,14,00,25.00
2014,08,12,14,01,25.00
2014,08,12,14,02,25.10
2014,08,12,14,03,25.10
2014,08,12,14,04,25.20
2014,08,12,14,05,25.20
2014,08,12,14,06,25.30
2014,08,12,14,07,25.30
2014,08,12,14,08,25.30
2014,08,12,14,09,25.40
2014,08,12,14,10,25.40
2014,08,12,14,11,25.50
2014,08,12,14,12,25.50
2014,08,12,14,13,25.60
2014,08,12,14,14,25.70
2014,08,12,14,15,25.80
2014,08,12,14,16,25.90
2014,08,12,14,17,26.00
2014,08,12,14,18,26.10
2014,08,12,14,19,26.20
2014,08,12,14,20,26.30
2014,08,12,14,21,26.40
2014,08,12,14,22,26.50
2014,08,12,14,23,26.60
2014,08,12,14,24,26.70
2014,08,12,14,25,26.80
2014,08,12,14,26,26.90
2014,08,12,14,27,27.00
2014,08,12,14,28,27.10
2014,08,12,14,29,27.10
2014,08,12,14,30,27.20
2014,08,12,14,31,27.20
2014,08,12,14,32,27.30
2014,08,12,14,33,27.30
2014,08,12,14,34,27.40
2014,08,12,14,35,27.40
2014,08,12,14,36,27.40
2014,08,12,14,37,27.40
2014,08,12,14,38,27.30
2014,08,12,14,39,27.30
2014,08,12,14,40,27.30
2014,08,12,14,41,27.30
2014,08,12,14,42,27.30
2014,08,12,14,43,27.30
2014,08,12,14,44,27.20
2014,08,12,14,45,27.20
2014,08,12,14,46,27.10
2014,08,12,14,47,27.10
2014,08,12,14,48,27.10
2014,08,12,14,49,27.00
2014,08,12,14,50,26.90
2014,08,12,14,51,26.90
2014,08,12,14,52,26.80
2014,08,12,14,53,26.80
2014,08,12,14,54,26.70
2014,08,12,14,55,26.70
2014,08,12,14,56,26.70
2014,08,12,14,57,26.70
2014,08,12,14,58,26.70
2014,08,12,14,59,26.70
2014,08,12,15,00,26.70
2014,08,12,15,01,26.70
2014,08,12,15,02,26.70
2014,08,12,15,03,26.70
2014,08,12,15,04,26.70
2014,08,12,15,05,26.60
2014,08,12,15,06,26.60
2014,08,12,15,07,26.60
2014,08,12,15,08,26.60
2014,08,12,15,09,26.60
2014,08,12,15,10,26.50
2014,08,12,15,11,26.50
2014,08,12,15,12,26.50
2014,08,12,15,13,26.50
2014,08,12,15,14,26.40
2014,08,12,15,15,26.40
2014,08,12,15,16,26.40
2014,08,12,15,17,26.30
2014,08,12,15,18,26.30
2014,08,12,15,19,26.20
2014,08,12,15,20,26.20
2014,08,12,15,21,26.10
2014,08,12,15,22,26.10
2014,08,12,15,23,26.00
2014,08,12,15,24,26.00
2014,08,12,15,25,25.90
2014,08,12,15,26,25.90
2014,08,12,15,27,25.90
2014,08,12,15,28,25.90
2014,08,12,15,29,25.90
2014,08,12,15,30,25.80
2014,08,12,15,31,25.80
2014,08,12,15,32,25.70
2014,08,12,15,33,25.60
2014,08,12,15,34,25.50
2014,08,12,15,35,25.40
2014,08,12,15,36,25.30
2014,08,12,15,37,25.30
2014,08,12,15,38,25.30
2014,08,12,15,39,25.20
2014,08,12,15,40,25.20
2014,08,12,15,41,25.20
2014,08,12,15,42,25.10
2014,08,12,15,43,24.90
2014,08,12,15,44,24.80
2014,08,12,15,45,24.60
2014,08,12,15,46,24.50
2014,08,12,15,47,24.40
2014,08,12,15,48,24.30
2014,08,12,15,49,24.20
2014,08,12,15,50,24.10
2014,08,12,15,51,24.00
2014,08,12,15,52,24.00
2014,08,12,15,53,23.90
2014,08,12,15,54,23.90
2014,08,12,15,55,23.80
2014,08,12,15,56,23.80
2014,08,12,15,57,23.70
2014,08,12,15,58,23.60
2014,08,12,15,59,23.60
2014,08,12,16,00,23.50
2014,08,12,16,01,23.40
2014,08,12,16,02,23.40
2014,08,12,16,03,23.40
2014,08,12,16,04,23.40
2014,08,12,16,05,23.40
2014,08,12,16,06,23.50
2014,08,12,16,07,23.60
2014,08,12,16,08,23.60
2014,08,12,16,09,23.60
2014,08,12,16,10,23.60
2014,08,12,16,11,23.70
2014,08,12,16,12,23.70
2014,08,12,16,13,23.70
2014,08,12,16,14,23.70
2014,08,12,16,15,23.80
2014,08,12,16,16,23.90
2014,08,12,16,17,23.90
2014,08,12,16,18,24.00
2014,08,12,16,19,24.10
2014,08,12,16,20,24.10
2014,08,12,16,21,24.20
2014,08,12,16,22,24.20
2014,08,12,16,23,24.30
2014,08,12,16,24,24.30
2014,08,12,16,25,24.30
2014,08,12,16,26,24.30
2014,08,12,16,27,24.30
2014,08,12,16,28,24.40
2014,08,12,16,29,24.40
2014,08,12,16,30,24.40
2014,08,12,16,31,24.50
2014,08,12,16,32,24.50
2014,08,12,16,33,24.50
2014,08,12,16,34,24.50
2014,08,12,16,35,24.50
2014,08,12,16,36,24.50
2014,08,12,16,37,24.50
2014,08,12,16,38,24.50
2014,08,12,16,39,24.40
2014,08,12,16,40,24.40
2014,08,12,16,41,24.30
2014,08,12,16,42,24.20
2014,08,12,16,43,24.20
2014,08,12,16,44,24.10
2014,08,12,16,45,24.00
2014,08,12,16,46,24.00
2014,08,12,16,47,23.90
2014,08,12,16,48,23.90
2014,08,12,16,49,23.90
2014,08,12,16,50,23.80
2014,08,12,16,51,23.80
2014,08,12,16,52,23.80
2014,08,12,16,53,23.80
2014,08,12,16,54,23.80
2014,08,12,16,55,23.80
2014,08,12,16,56,23.70
2014,08,12,16,57,23.80
2014,08,12,16,58,23.80
2014,08,12,16,59,23.80
2014,08,12,17,00,23.80
2014,08,12,17,01,23.80
2014,08,12,17,02,23.90
2014,08,12,17,03,23.90
2014,08,12,17,04,23.90
2014,08,12,17,05,23.90
2014,08,12,17,06,23.90
2014,08,12,17,07,24.00
2014,08,12,17,08,24.00
2014,08,12,17,09,24.00
2014,08,12,17,10,24.10
2014,08,12,17,11,24.10
2014,08,12,17,12,24.00
2014,08,12,17,13,24.00
2014,08,12,17,14,24.00
2014,08,12,17,15,24.00
2014,08,12,17,16,23.90
2014,08,12,17,17,23.90
2014,08,12,17,18,23.90
2014,08,12,17,19,23.90